When you browse on this site, cookies collect data to enhance your experience and personalize the content and advertising you see.
Visit our Privacy Policy to learn more. By continuing to use the site, you agree to this use of cookies and data.
  • In Österreich
  • Länderverzeichnis
  • Für 7 Tage
  • Wassertemperatur
  • Satellitenkarten
  • Wetterkarte
  • News
  • Widgets
  • user-avatar
    Anmelden

    Stündliche Wetter Bregenz

    Heute, 26 Mai, Sonntag

    Zeit Temperatur Niederschläge Wind Luftdruck Luftfeuchtigkeit
    00:00 +6°C° 0 mm 1 m/S 646 mmHg 94%
    01:00 +6°C° 0 mm 1 m/S 646 mmHg 94%
    02:00 +6°C° 0 mm 1 m/S 646 mmHg 94%
    03:00 +5°C° 0 mm 0 m/S 646 mmHg 94%
    04:00 +4°C° 0 mm 0 m/S 646 mmHg 95%
    05:00 +5°C° 0 mm 0 m/S 646 mmHg 93%
    06:00 +6°C° 0 mm 0 m/S 646 mmHg 92%
    07:00 +8°C° 0 mm 0 m/S 647 mmHg 90%
    08:00 +9°C° 0.1 mm 0 m/S 647 mmHg 85%
    09:00 +11°C° 0.1 mm 1 m/S 647 mmHg 80%
    10:00 +12°C° 0.1 mm 1 m/S 647 mmHg 75%
    11:00 +13°C° 0.1 mm 1 m/S 647 mmHg 70%
    12:00 +14°C° 0.1 mm 1 m/S 647 mmHg 66%
    13:00 +15°C° 0.1 mm 1 m/S 647 mmHg 61%
    14:00 +15°C° 0.1 mm 1 m/S 647 mmHg 61%
    15:00 +15°C° 0.1 mm 1 m/S 647 mmHg 61%
    16:00 +15°C° 0.1 mm 1 m/S 647 mmHg 62%
    17:00 +14°C° 0.1 mm 1 m/S 646 mmHg 68%
    18:00 +13°C° 0.1 mm 1 m/S 646 mmHg 74%
    19:00 +12°C° 0.1 mm 1 m/S 646 mmHg 80%
    20:00 +11°C° 0 mm 1 m/S 646 mmHg 83%
    21:00 +9°C° 0 mm 1 m/S 645 mmHg 87%
    22:00 +8°C° 0 mm 1 m/S 645 mmHg 90%
    23:00 +8°C° 0 mm 1 m/S 645 mmHg 91%

    Morgen, 27 Mai, Montag

    Zeit Temperatur Niederschläge Wind Luftdruck Luftfeuchtigkeit
    00:00 +8°C° 0 mm 1 m/S 645 mmHg 91%
    01:00 +8°C° 0 mm 1 m/S 644 mmHg 92%
    02:00 +7°C° 0 mm 1 m/S 644 mmHg 92%
    03:00 +7°C° 0 mm 1 m/S 644 mmHg 93%
    04:00 +7°C° 0 mm 1 m/S 643 mmHg 94%
    05:00 +8°C° 0 mm 1 m/S 644 mmHg 91%
    06:00 +9°C° 0 mm 1 m/S 644 mmHg 88%
    07:00 +9°C° 0 mm 0 m/S 644 mmHg 85%
    08:00 +11°C° 0.1 mm 1 m/S 644 mmHg 82%
    09:00 +12°C° 0.1 mm 1 m/S 644 mmHg 78%
    10:00 +13°C° 0.1 mm 1 m/S 645 mmHg 75%
    11:00 +13°C° 0.3 mm 1 m/S 644 mmHg 74%
    12:00 +14°C° 0.3 mm 1 m/S 644 mmHg 73%
    13:00 +14°C° 0.3 mm 2 m/S 644 mmHg 72%
    14:00 +14°C° 0.3 mm 1 m/S 644 mmHg 73%
    15:00 +14°C° 0.3 mm 1 m/S 643 mmHg 73%
    16:00 +14°C° 0.3 mm 1 m/S 643 mmHg 74%
    17:00 +13°C° 0.3 mm 1 m/S 643 mmHg 79%
    18:00 +13°C° 0.3 mm 1 m/S 643 mmHg 83%
    19:00 +12°C° 0.3 mm 1 m/S 642 mmHg 88%
    20:00 +11°C° 0.8 mm 1 m/S 642 mmHg 91%
    21:00 +10°C° 0.8 mm 1 m/S 642 mmHg 94%
    22:00 +9°C° 0.8 mm 1 m/S 642 mmHg 97%
    23:00 +9°C° 1 mm 1 m/S 641 mmHg 97%

    übermorgen, 28 Mai, Dienstag

    Zeit Temperatur Niederschläge Wind Luftdruck Luftfeuchtigkeit
    00:00 +9°C° 1 mm 1 m/S 641 mmHg 97%
    01:00 +9°C° 1 mm 1 m/S 641 mmHg 98%
    02:00 +8°C° 1.3 mm 1 m/S 641 mmHg 98%
    03:00 +8°C° 1.3 mm 1 m/S 640 mmHg 98%
    04:00 +8°C° 1.3 mm 1 m/S 640 mmHg 98%
    05:00 +8°C° 1.2 mm 1 m/S 640 mmHg 98%
    06:00 +8°C° 1.2 mm 1 m/S 640 mmHg 98%
    07:00 +6°C° 1.2 mm 2 m/S 640 mmHg 98%
    08:00 +6°C° 1.6 mm 2 m/S 640 mmHg 98%
    09:00 +6°C° 1.6 mm 2 m/S 640 mmHg 97%
    10:00 +5°C° 1.6 mm 2 m/S 640 mmHg 97%
    11:00 +6°C° 0.7 mm 2 m/S 640 mmHg 96%
    12:00 +7°C° 0.7 mm 1 m/S 641 mmHg 94%
    13:00 +7°C° 0.7 mm 1 m/S 641 mmHg 92%
    14:00 +7°C° 0.8 mm 1 m/S 641 mmHg 92%
    15:00 +7°C° 0.8 mm 1 m/S 641 mmHg 92%
    16:00 +7°C° 0.8 mm 1 m/S 640 mmHg 92%
    17:00 +7°C° 0.9 mm 1 m/S 641 mmHg 92%
    18:00 +6°C° 0.9 mm 1 m/S 641 mmHg 93%
    19:00 +5°C° 0.9 mm 2 m/S 641 mmHg 94%
    20:00 +5°C° 0.7 mm 2 m/S 642 mmHg 94%
    21:00 +4°C° 0.7 mm 2 m/S 642 mmHg 94%
    22:00 +4°C° 0.7 mm 2 m/S 642 mmHg 94%
    23:00 +3°C° 0.2 mm 2 m/S 642 mmHg 95%

    29 Mai, Mittwoch

    Zeit Temperatur Niederschläge Wind Luftdruck Luftfeuchtigkeit
    00:00 +4°C° 0.2 mm 1 m/S 642 mmHg 95%
    01:00 +4°C° 0.2 mm 1 m/S 642 mmHg 95%
    02:00 +4°C° 0.3 mm 1 m/S 643 mmHg 96%
    03:00 +4°C° 0.3 mm 1 m/S 643 mmHg 96%
    04:00 +3°C° 0.3 mm 1 m/S 643 mmHg 96%
    05:00 +4°C° 0.6 mm 1 m/S 643 mmHg 97%
    06:00 +4°C° 0.6 mm 1 m/S 643 mmHg 97%
    07:00 +4°C° 0.6 mm 1 m/S 643 mmHg 97%
    08:00 +4°C° 0.7 mm 1 m/S 644 mmHg 96%
    09:00 +4°C° 0.7 mm 1 m/S 644 mmHg 95%
    10:00 +5°C° 0.7 mm 1 m/S 644 mmHg 95%
    11:00 +6°C° 0.4 mm 1 m/S 645 mmHg 91%
    12:00 +7°C° 0.4 mm 1 m/S 645 mmHg 88%
    13:00 +8°C° 0.4 mm 1 m/S 646 mmHg 85%
    14:00 +8°C° 0.5 mm 1 m/S 646 mmHg 84%
    15:00 +8°C° 0.5 mm 1 m/S 646 mmHg 83%
    16:00 +8°C° 0.5 mm 1 m/S 647 mmHg 82%
    17:00 +8°C° 0.4 mm 1 m/S 647 mmHg 85%
    18:00 +7°C° 0.4 mm 1 m/S 647 mmHg 88%
    19:00 +7°C° 0.4 mm 1 m/S 647 mmHg 91%
    20:00 +6°C° 0.1 mm 1 m/S 648 mmHg 92%
    21:00 +5°C° 0.1 mm 1 m/S 648 mmHg 93%
    22:00 +4°C° 0.1 mm 1 m/S 648 mmHg 94%
    23:00 +4°C° 0 mm 1 m/S 649 mmHg 94%

    30 Mai, Donnerstag

    Zeit Temperatur Niederschläge Wind Luftdruck Luftfeuchtigkeit
    00:00 +4°C° 0 mm 1 m/S 649 mmHg 94%
    01:00 +3°C° 0 mm 1 m/S 649 mmHg 95%
    02:00 +3°C° 0 mm 1 m/S 649 mmHg 95%
    03:00 +3°C° 0 mm 1 m/S 649 mmHg 95%
    04:00 +3°C° 0 mm 1 m/S 649 mmHg 95%
    05:00 +4°C° 0 mm 1 m/S 650 mmHg 93%
    06:00 +5°C° 0 mm 1 m/S 650 mmHg 91%
    07:00 +6°C° 0 mm 1 m/S 650 mmHg 89%
    08:00 +8°C° 0 mm 1 m/S 651 mmHg 81%
    09:00 +9°C° 0 mm 1 m/S 651 mmHg 74%
    10:00 +11°C° 0 mm 1 m/S 651 mmHg 66%
    11:00 +12°C° 0 mm 1 m/S 652 mmHg 61%
    12:00 +13°C° 0 mm 1 m/S 652 mmHg 55%
    13:00 +14°C° 0 mm 1 m/S 652 mmHg 49%
    14:00 +14°C° 0 mm 1 m/S 652 mmHg 48%
    15:00 +14°C° 0 mm 2 m/S 652 mmHg 47%
    16:00 +14°C° 0 mm 2 m/S 652 mmHg 46%
    17:00 +13°C° 0 mm 1 m/S 652 mmHg 54%
    18:00 +12°C° 0 mm 1 m/S 651 mmHg 61%
    19:00 +11°C° 0 mm 1 m/S 651 mmHg 69%
    20:00 +10°C° 0 mm 1 m/S 651 mmHg 71%
    21:00 +8°C° 0 mm 1 m/S 651 mmHg 73%
    22:00 +6°C° 0 mm 2 m/S 651 mmHg 76%
    23:00 +6°C° 0 mm 2 m/S 651 mmHg 77%

    31 Mai, Freitag

    Zeit Temperatur Niederschläge Wind Luftdruck Luftfeuchtigkeit
    00:00 +6°C° 0 mm 2 m/S 651 mmHg 78%
    01:00 +5°C° 0 mm 2 m/S 651 mmHg 79%
    02:00 +5°C° 0.1 mm 2 m/S 650 mmHg 80%
    03:00 +5°C° 0.1 mm 2 m/S 650 mmHg 80%
    04:00 +5°C° 0.1 mm 2 m/S 650 mmHg 81%
    05:00 +5°C° 1 mm 2 m/S 650 mmHg 85%
    06:00 +5°C° 1 mm 2 m/S 650 mmHg 89%
    07:00 +6°C° 1 mm 2 m/S 650 mmHg 92%
    08:00 +6°C° 2.8 mm 2 m/S 650 mmHg 93%
    09:00 +6°C° 2.8 mm 2 m/S 650 mmHg 94%
    10:00 +6°C° 2.8 mm 2 m/S 650 mmHg 95%
    11:00 +6°C° 2.3 mm 2 m/S 650 mmHg 95%
    12:00 +6°C° 2.3 mm 2 m/S 650 mmHg 95%
    13:00 +6°C° 2.3 mm 2 m/S 650 mmHg 95%
    14:00 +7°C° 0.5 mm 2 m/S 651 mmHg 93%
    15:00 +8°C° 0.5 mm 2 m/S 651 mmHg 92%
    16:00 +9°C° 0.5 mm 2 m/S 651 mmHg 90%
    17:00 +10°C° 0.7 mm 1 m/S 651 mmHg 91%
    18:00 +10°C° 0.7 mm 1 m/S 652 mmHg 93%
    19:00 +9°C° 0.7 mm 1 m/S 652 mmHg 94%
    20:00 +9°C° 0.9 mm 1 m/S 652 mmHg 95%
    21:00 +9°C° 0.9 mm 1 m/S 652 mmHg 96%
    22:00 +8°C° 0.9 mm 1 m/S 653 mmHg 98%
    23:00 +7°C° 0.4 mm 2 m/S 653 mmHg 98%
    Mehr zeigen